Hourly Data Report for May 07, 2020

TORONTO CITY
ONTARIO
Current Station Operator: ECCC - MSC

43°40'00.000" N
79°24'00.000" W
112.50 m
6158355
71508
XTO

Download Data

Hourly Data (May 2020)
Hourly Data Report for May 7, 2020
TIME
LST
Temp Definition
°C
Dew Point Definition
°C
Rel Hum Definition
%
Precip. Amount Definition
mm

Wind Dir Definition
10's deg

Wind Spd Definition
km/h
Visibility Definition
km
Stn Press Definition
kPa
Hmdx Definition


Wind Chill Definition


Weather Definition


00:00 8.2 -7.8 32 0.0       99.79     LegendNANA
01:00 7.0 -7.5 35 0.0       99.74     LegendNANA
02:00 6.0 -7.2 38 0.0       99.68     LegendNANA
03:00 5.6 -6.8 40 0.0       99.68     LegendNANA
04:00 5.1 -7.2 40 0.0       99.64     LegendNANA
05:00 5.1 -7.5 40 0.0       99.61     LegendNANA
06:00 7.3 -7.1 35 0.0       99.62     LegendNANA
07:00 8.6 -5.6 36 0.0       99.62     LegendNANA
08:00 10.4 -4.7 34 0.0       99.59     LegendNANA
09:00 12.2 -4.0 32 0.0       99.53     LegendNANA
10:00 11.9 -2.7 36 0.0       99.51     LegendNANA
11:00 11.1 -4.7 33 0.0       99.45     LegendNANA
12:00 11.6 -4.1 33 0.2       99.33     LegendNANA
13:00 7.7 2.5 69 0.8       99.43     LegendNANA
14:00 8.5 2.3 65 0.0       99.42     LegendNANA
15:00 8.6 -0.4 53 0.0       99.45     LegendNANA
16:00 10.0 -2.0 43 0.2       99.46     LegendNANA
17:00 10.0 -4.0 37 0.0       99.50     LegendNANA
18:00 10.2 -12.2 19 0.0       99.51     LegendNANA
19:00 9.2 -9.2 26 0.0       99.58     LegendNANA
20:00 7.6 -5.1 40 0.0       99.64     LegendNANA
21:00 6.1 -3.8 49 0.0       99.70     LegendNANA
22:00 5.0 -3.5 54 0.0       99.75     LegendNANA
23:00 4.9 -4.8 50 0.0       99.78     LegendNANA

Notes on Data Quality.

Legend

  • E = Estimated
  • M = Missing
  • NA = Not Available*
  • [empty] = Indicates an unobserved value
Date modified: